Location: ČR
(50.0000°N, 15.0000°E)
Time: 10:53:09
(UTC+02:00)

A-11 Canister half - Pass Details

Date: 20 March 2026
Orbit: 1514 x 1685 km, 47.2° (Epoch: 16 April)

Event Time Altitude Azimuth Distance (km) Brightness Sun altitude
Rises 16:09:30 0° 272° (W) 4,877 12.8 18.5°
Reaches altitude 10° 16:12:37 10° 271° (W) 3,907 12.6 18.0°
Maximum altitude 16:22:39 75° 188° (S) 1,730 9.7 16.5°
Drops below altitude 10° 16:32:48 10° 106° (ESE) 3,945 10.7 15.0°
Sets 16:35:58 0° 105° (ESE) 4,926 11.1 14.5°
